This is the latest recevied weather packets stored in our database for station/object IZ1UQG-N2. If no packets are shown the sender has not sent any weather packets the latest 10 day(s).
| Time | Temp. | Humidity | Pressure | Rain* | Wind** | Luminosity | Snow |
|---|---|---|---|---|---|---|---|
| 1777968250 | 11.67° C | 91% | 1012.6 hPa | 3.05 mm | - | 79 W/m² | - |
| 1777968192 | 11.67° C | 91% | 1012.8 hPa | 3.3 mm | - | 79 W/m² | - |
| 1777968188 | 11.67° C | 91% | 1012.8 hPa | 3.3 mm | - | 79 W/m² | - |
| 1777968132 | 11.11° C | 91% | 1012.8 hPa | 3.56 mm | - | 79 W/m² | - |
| 1777968072 | 11.11° C | 91% | 1012.8 hPa | 3.56 mm | - | 79 W/m² | - |
| 1777968012 | 11.11° C | 91% | 1012.8 hPa | 3.56 mm | - | 81 W/m² | - |
| 1777968007 | 11.11° C | 91% | 1012.8 hPa | 3.56 mm | - | 81 W/m² | - |
| 1777967951 | 11.11° C | 90% | 1012.8 hPa | 3.56 mm | - | 81 W/m² | - |
| 1777967890 | 11.11° C | 91% | 1012.8 hPa | 3.56 mm | - | 81 W/m² | - |
| 1777967830 | 11.11° C | 91% | 1012.8 hPa | 3.81 mm | - | 79 W/m² | - |
| 1777967828 | 11.11° C | 91% | 1012.8 hPa | 3.81 mm | - | 79 W/m² | - |
| 1777967772 | 11.11° C | 90% | 1012.8 hPa | 3.56 mm | - | 76 W/m² | - |
| 1777967712 | 11.11° C | 90% | 1012.9 hPa | 3.56 mm | - | 70 W/m² | - |
| 1777967651 | 11.11° C | 90% | 1012.8 hPa | 3.81 mm | - | 67 W/m² | - |
| 1777967647 | 11.11° C | 90% | 1012.8 hPa | 3.81 mm | - | 67 W/m² | - |
| 1777967591 | 11.11° C | 91% | 1012.8 hPa | 3.81 mm | - | 63 W/m² | - |
| 1777967531 | 11.11° C | 91% | 1012.9 hPa | 3.81 mm | - | 62 W/m² | - |
| 1777967471 | 11.11° C | 91% | 1012.9 hPa | 3.81 mm | - | 63 W/m² | - |
| 1777967468 | 11.11° C | 91% | 1012.9 hPa | 3.81 mm | - | 63 W/m² | - |
| 1777967410 | 11.11° C | 91% | 1012.8 hPa | 4.06 mm | - | 69 W/m² | - |
| 1777967350 | 11.11° C | 91% | 1012.9 hPa | 4.06 mm | - | 70 W/m² | - |
| 1777967291 | 11.11° C | 91% | 1012.9 hPa | 4.32 mm | - | 74 W/m² | - |
| 1777967289 | 11.11° C | 91% | 1012.8 hPa | 4.32 mm | - | 77 W/m² | - |
| 1777967231 | 11.11° C | 91% | 1012.8 hPa | 4.32 mm | - | 77 W/m² | - |
| 1777967170 | 11.67° C | 91% | 1012.9 hPa | 4.32 mm | - | 77 W/m² | - |
* Rain latest hour (hover to see other rain measurements)
** Current wind speed in m/s (hover to see current wind gust speed)